Torna al catalogo

STARLINK-4275

AttivoComunicazioniVLEO
NORAD 53008·PAYLOAD·🇺🇸 United States

Lanciato Jul 7, 2022 da Cape Canaveral Space Force Station

Loading…

Prossimi Passaggi (prossime 24 ore)

TLE

AggiornatoSource: CelesTrak SupGP

Epoca: Sep 14, 2026, 14:02 UTC

1 53008C 22076Y   26257.58520833  .00052669  00000+0  15069-2 0  2576
2 53008  53.1577 311.3787 0001079  82.6414  33.6616 15.35372754    16

Traccia STARLINK-4275 in tempo reale con AllMySat

Download on the App Store